Temp
43 42 42 41 41 40 40 40 42 41 42 42 43 43 43 42 42 42 41 40 40 40
43 42 41 41 41 40 41 42 41 42 41 41 41 42 42 40 40 40 40 39 39 38
42 42 42 41 40 40 40 41 42 41 39 38 38 38 41 39 40 39 38 38 37 37
42 42 41 41 41 40 38 39 40 38 36 36 36 37 38 39 38 37 37 36 35 34
39 39 37 37 37 37 37 38 37 36 33 34 35 36 37 37 37 35 34 34 33 31
37 37 36 36 36 36 36 36 36 35 33 32 33 33 35 36 35 33 33 34 30 29
36 36 35 35 35 34 35 34 33 32 31 31 32 33 34 36 33 30 29 30 30 29
35 35 35 34 33 32 31 32 33 30 29 30 31 34 34 34 31 28 27 28 28 29
34 34 32 31 31 30 29 29 29 28 28 28 32 33 35 33 29 28 26 25 26 28
32 30 29 30 29 28 26 27 26 26 26 26 28 32 32 32 28 27 25 24 24 27
31 29 28 27 25 24 25 20 20 22 23 24 29 30 29 29 26 24 23 23 24 23
29 26 25 18 18 20 24 22 21 22 21 20 21 30 29 24 23 20 19 23 23 24
28 22 15 15 17 20 22 25 24 21 19 25 19 30 30 23 20 19 20 21 21 29
28 26 24 22 20 19 20 25 23 19 18 17 21 20 29 29 15 18 20 20 20 21
MSLP
1023.09 1023.04 1023.18 1023.41 1023.48 1023.56 1023.26 1022.81 1022.55 1022.30 1021.91 1021.63 1021.27 1020.70 1020.16 1020.11 1019.74 1019.33 1018.96 1018.80 1018.60 1018.26
1023.22 1023.21 1023.42 1023.87 1023.95 1023.84 1023.73 1022.90 1022.70 1022.51 1022.34 1022.13 1021.75 1021.20 1020.62 1020.74 1020.40 1019.87 1019.40 1019.57 1019.24 1018.86
1023.35 1023.42 1023.63 1024.11 1024.32 1024.17 1023.79 1023.09 1022.70 1022.75 1022.78 1022.77 1022.30 1021.98 1021.34 1021.35 1021.02 1020.34 1019.95 1020.21 1019.79 1019.39
1023.32 1023.61 1024.00 1024.14 1024.25 1024.18 1023.96 1023.48 1023.16 1023.39 1023.41 1023.24 1022.97 1022.58 1022.20 1021.66 1021.42 1020.83 1020.54 1020.52 1020.21 1019.83
1023.36 1023.77 1024.16 1024.37 1024.42 1024.45 1024.36 1024.08 1024.04 1023.89 1024.06 1023.76 1023.57 1023.03 1023.02 1022.24 1021.85 1021.48 1021.20 1021.23 1021.08 1020.73
1023.86 1024.08 1024.44 1024.78 1024.82 1024.79 1024.70 1024.76 1024.77 1024.57 1024.55 1024.47 1024.19 1023.80 1023.53 1022.84 1022.58 1022.28 1022.08 1022.13 1021.89 1021.85
1024.53 1024.58 1024.86 1025.23 1025.31 1025.42 1025.52 1025.50 1025.62 1025.59 1025.47 1025.22 1024.80 1024.24 1023.73 1023.42 1023.48 1023.25 1023.50 1023.57 1023.42 1022.39
1025.10 1025.09 1025.41 1025.78 1025.85 1026.16 1026.32 1026.35 1026.01 1026.31 1026.24 1025.83 1025.39 1024.73 1024.16 1024.18 1024.20 1024.37 1024.59 1024.57 1023.58 1023.17
1025.53 1025.69 1026.11 1026.31 1026.49 1026.88 1027.12 1026.91 1026.84 1026.93 1026.78 1026.34 1025.80 1025.35 1024.68 1024.64 1024.97 1025.11 1025.28 1025.00 1024.68 1024.04
1026.02 1026.35 1026.70 1026.86 1027.19 1027.58 1027.64 1027.60 1027.65 1027.57 1027.40 1026.86 1026.49 1026.07 1025.72 1025.52 1025.85 1026.11 1026.36 1026.06 1025.47 1024.54
1026.46 1026.85 1027.15 1027.44 1027.76 1027.92 1028.05 1028.13 1028.20 1028.31 1028.08 1027.65 1027.11 1027.00 1026.91 1026.87 1027.01 1027.17 1026.99 1026.56 1026.01 1025.19
1026.88 1027.22 1027.56 1028.02 1028.04 1028.12 1028.36 1028.59 1028.75 1028.97 1028.89 1028.54 1028.14 1027.70 1027.88 1028.04 1027.89 1027.82 1027.48 1027.05 1026.51 1025.83
1027.16 1027.51 1027.91 1028.01 1028.13 1028.15 1028.41 1028.87 1029.21 1029.52 1029.56 1029.42 1029.07 1028.11 1028.11 1028.53 1028.45 1028.18 1027.84 1027.46 1026.99 1026.05
1027.31 1027.55 1027.81 1028.02 1028.16 1028.26 1028.45 1028.99 1029.57 1029.99 1030.33 1030.24 1029.68 1029.40 1028.44 1028.31 1028.63 1028.50 1028.29 1028.04 1027.77 1027.30
Wind_Speed
7 5 6 7 6 5 5 6 8 8 9 10 10 9 8 6 6 7 6 9 8 5
6 7 7 7 5 4 5 6 6 8 10 10 11 10 8 6 7 7 7 8 8 6
5 6 6 5 5 4 4 5 5 8 9 10 11 12 7 5 7 7 7 7 10 9
5 6 5 4 2 2 3 5 7 10 10 11 11 12 9 8 9 11 10 11 12 13
7 7 6 5 6 6 6 6 10 10 11 11 11 12 11 10 10 12 13 12 13 13
6 7 6 6 6 7 7 7 11 12 12 12 11 11 11 10 12 13 14 12 15 14
6 7 6 6 8 10 10 10 11 12 12 11 11 11 10 10 12 14 13 14 10 14
7 7 8 8 9 9 10 10 11 11 11 10 10 10 10 11 12 13 13 12 13 14
8 8 7 8 9 9 8 9 10 10 11 12 10 21 19 13 11 13 14 14 12 12
8 7 6 7 8 6 7 9 10 10 10 11 13 21 22 19 11 11 10 10 11 12
8 7 6 6 4 4 5 4 4 9 9 10 13 23 21 18 11 9 9 9 9 11
7 6 6 4 4 3 5 5 7 8 10 10 8 22 21 12 6 7 6 9 9 10
7 6 4 4 3 1 4 8 8 9 6 17 9 19 20 13 4 6 6 8 9 21
6 5 4 4 2 2 4 8 9 10 8 7 9 10 19 19 4 5 5 6 7 6
Wind_Direction
56 53 50 36 36 25 13 25 9 3 9 8 3 3 8 8 6 13 16 17 16 358
69 64 63 41 38 34 12 25 10 21 23 13 10 2 19 13 12 21 31 19 15 5
77 78 76 62 41 30 350 357 14 45 36 20 15 5 10 22 16 28 39 29 19 10
100 110 100 91 57 77 337 357 28 54 36 30 18 10 3 30 32 33 33 34 24 12
72 73 70 63 50 40 24 33 47 59 39 30 20 17 353 36 31 33 27 38 25 13
79 75 68 61 51 42 33 39 51 43 48 26 22 13 2 37 36 35 29 26 30 11
74 76 65 61 61 52 42 35 61 48 37 31 18 13 5 46 49 39 30 20 32 19
78 68 66 67 64 61 51 45 62 51 39 30 28 20 43 53 58 46 36 24 23 21
77 69 68 71 69 68 58 56 53 56 38 37 34 32 46 57 61 55 38 29 21 23
94 83 72 79 81 77 71 67 59 52 40 39 38 40 40 51 55 52 40 30 24 25
107 100 85 78 93 91 86 83 74 58 40 31 43 45 44 43 54 52 35 18 23 24
104 100 95 84 79 92 101 83 73 74 54 37 19 52 48 38 48 44 26 18 3 42
113 115 116 130 118 115 107 106 90 73 52 48 21 45 54 48 31 36 28 17 11 30
130 131 136 128 105 99 93 118 100 82 57 39 36 22 46 52 37 34 19 27 15 10